User: anonymous
Location: Deer Lodge Site
(39.6809°N, 119.9392°W)
Time: 02:27:58
(UTC-07:00)
Language:

CZ-4C R/B - Orbit

View from above orbital plane
View from above orbital plane
View from above satellite
View from above satellite

Ground track
Ground track

The orbit data is extracted from the following two-line orbital elements,

1 36416U 10009D   14257.03593152 -.00000059  00000-0  31646-4 0  7466
2 36416 063.4483 082.3192 0288541 000.1735 359.9353 13.69423579226443
Epoch (UTC): 14 September 2014 00:51:44
Eccentricity: 0.0288541
inclination: 63.4483°
perigee height: 789 km
apogee height: 1214 km
right ascension of ascending node: 82.3192°
argument of perigee: 0.1735°
revolutions per day: 13.69423579
mean anomaly at epoch: 359.9353°
orbit number at epoch: 22644

The dashed part of the orbit path shows where the satellite is in the earth's shadow,  

DLR